Location: Bittkow
(50.3000°N, 19.0000°E)
Time: 22:57:37
(UTC+00:00)

ARIANE 5 R/B - Pass Details

Date: 19 September 2020
Orbit: 748 x 796 km, 98.6° (Epoch: 31 October)

Event Time Altitude Azimuth Distance (km) Brightness Sun altitude
Rises 03:32:34 0° 4° (N) 3,274 6.0 -9.3°
Reaches altitude 10° 03:35:39 10° 345° (NNW) 2,331 5.0 -8.8°
Maximum altitude 03:38:49 17° 306° (NW) 1,886 4.2 -8.3°
Drops below altitude 10° 03:41:58 10° 268° (W) 2,303 4.3 -7.8°
Enters shadow 03:42:11 - 266° (W) 2,357 4.4 -7.8°
